Total_Precipitation_Accumulation
1.68 1.70 1.63 1.65 1.59 1.81 2.11 2.16 2.06 2.24 2.26 2.05 1.76 1.58 1.50 1.39 1.26 1.30 1.43 1.37 1.25 1.33 1.59 1.68 1.55 1.44 1.34 1.15 1.00 0.94 0.90 0.82 0.78 0.64 0.51 0.48 0.55 0.56 0.50 0.43 0.38 0.34 0.33
2.11 2.15 2.00 1.94 1.83 1.88 2.06 2.19 2.22 2.63 2.49 2.35 1.92 1.71 1.65 1.60 1.50 1.47 1.50 1.62 1.38 1.24 1.34 1.60 1.76 1.72 1.65 1.44 1.24 1.09 0.97 0.89 0.79 0.59 0.46 0.42 0.50 0.60 0.57 0.50 0.41 0.33 0.26
2.21 2.29 2.26 2.13 2.09 2.08 2.19 2.21 2.39 2.63 2.33 2.20 1.91 1.81 1.72 1.58 1.44 1.48 1.61 1.73 1.58 1.38 1.23 1.33 1.60 1.74 1.82 1.80 1.66 1.41 1.16 0.98 0.85 0.65 0.49 0.43 0.47 0.55 0.55 0.55 0.49 0.36 0.25
2.25 2.33 2.13 2.01 2.28 2.36 2.40 2.48 2.56 2.59 2.43 2.34 2.13 1.81 1.69 1.62 1.30 1.30 1.35 1.34 1.42 1.27 1.36 1.50 1.62 1.68 1.84 1.96 1.97 1.90 1.61 1.26 1.03 0.85 0.67 0.55 0.56 0.59 0.53 0.51 0.49 0.38 0.27
2.07 2.21 2.04 2.10 2.35 2.43 2.41 2.24 2.55 2.52 2.46 2.37 2.01 1.72 1.48 1.32 1.19 1.05 1.01 0.95 1.06 1.10 1.18 1.34 1.50 1.50 1.74 2.03 2.16 2.24 2.13 1.79 1.40 1.15 1.03 0.86 0.75 0.66 0.58 0.54 0.50 0.42 0.33
2.09 2.23 2.10 2.19 2.34 2.41 2.34 2.35 2.48 2.51 2.35 2.30 1.86 1.53 1.31 1.06 1.05 0.98 0.83 0.86 0.88 0.84 0.89 1.07 1.34 1.19 1.52 1.83 1.97 2.26 2.44 2.31 1.92 1.59 1.43 1.31 1.16 0.96 0.75 0.66 0.63 0.56 0.44
2.13 2.30 2.18 2.33 2.34 2.18 2.16 2.33 2.47 2.32 2.11 2.28 2.04 1.44 1.05 0.85 0.87 0.82 0.82 0.89 0.84 0.84 0.95 1.18 1.29 1.23 1.18 1.32 1.38 1.66 2.16 2.49 2.41 2.08 1.77 1.57 1.53 1.43 1.06 0.93 0.87 0.78 0.66
1.97 1.97 2.01 2.00 2.04 2.10 2.11 2.17 2.34 2.13 1.81 2.02 2.00 1.71 1.13 0.88 0.76 0.67 0.79 0.81 0.81 0.92 0.99 1.13 1.38 1.50 1.38 1.47 1.25 1.24 1.73 2.30 2.57 2.54 2.23 1.94 1.84 1.76 1.45 1.32 1.13 0.93 0.80
1.63 1.63 1.65 1.78 2.00 2.11 2.06 2.09 2.11 1.98 1.67 1.69 1.84 1.90 1.40 1.02 0.80 0.56 0.61 0.73 0.89 1.05 1.05 1.23 1.36 1.48 1.56 1.70 1.72 1.54 1.46 1.61 2.07 2.60 2.60 2.29 1.99 1.79 1.82 1.84 1.62 1.23 0.95
1.46 1.42 1.44 1.49 1.56 1.65 1.68 1.62 1.74 1.85 1.80 1.62 1.72 1.76 1.61 1.43 1.24 0.81 0.64 0.68 0.86 0.97 1.08 1.10 1.13 1.21 1.49 1.84 1.95 1.74 1.50 1.34 1.47 2.13 2.62 2.62 2.27 1.97 1.98 2.12 2.25 1.90 1.32
1.31 1.29 1.25 1.23 1.20 1.26 1.38 1.41 1.52 1.57 1.62 1.60 1.63 1.70 1.66 1.62 1.58 1.37 0.99 0.93 0.93 0.83 0.91 1.00 1.04 1.09 1.37 1.63 1.77 1.69 1.68 1.48 1.42 1.57 1.93 2.26 2.31 2.20 2.11 2.23 2.57 2.59 2.17
1.06 1.04 1.07 1.10 1.09 1.13 1.22 1.30 1.37 1.33 1.43 1.48 1.52 1.59 1.66 1.63 1.66 1.67 1.34 1.19 1.08 0.92 0.94 0.91 0.91 0.98 1.20 1.39 1.34 1.45 1.46 1.32 1.24 1.29 1.43 1.70 1.84 1.96 2.04 2.24 2.59 2.88 2.85
0.76 0.78 0.79 0.89 0.93 1.02 1.05 1.05 1.14 1.23 1.37 1.45 1.47 1.53 1.57 1.55 1.55 1.61 1.55 1.30 1.18 1.06 1.08 1.02 0.91 0.95 0.96 1.23 1.24 1.15 1.00 0.92 0.90 0.93 0.94 1.08 1.30 1.44 1.61 1.84 2.16 2.47 2.71
0.57 0.62 0.72 0.84 0.92 0.96 0.97 1.00 1.00 1.06 1.21 1.35 1.43 1.60 1.53 1.43 1.46 1.53 1.62 1.58 1.38 1.22 1.23 1.09 0.98 0.92 0.95 1.05 1.03 0.89 0.82 0.74 0.70 0.69 0.67 0.69 0.77 0.90 1.05 1.26 1.52 1.74 1.94
0.54 0.58 0.66 0.77 0.90 1.01 1.04 1.03 1.04 1.13 1.27 1.35 1.49 1.58 1.51 1.48 1.50 1.50 1.61 1.70 1.64 1.44 1.26 1.18 1.08 0.95 0.92 0.90 0.88 0.87 0.84 0.75 0.65 0.60 0.56 0.54 0.57 0.60 0.69 0.85 1.02 1.19 1.30
0.50 0.55 0.63 0.70 0.72 0.79 0.85 0.86 0.94 1.06 1.22 1.28 1.29 1.36 1.42 1.45 1.58 1.54 1.60 1.68 1.73 1.64 1.34 1.26 1.18 0.97 1.02 0.80 0.78 0.81 0.82 0.72 0.57 0.51 0.49 0.49 0.51 0.54 0.56 0.62 0.73 0.87 1.03
0.45 0.50 0.55 0.55 0.56 0.57 0.59 0.65 0.76 0.90 0.98 0.99 0.97 1.02 1.07 1.16 1.30 1.34 1.42 1.49 1.61 1.66 1.40 1.35 1.48 1.36 1.32 1.10 0.93 0.86 0.72 0.68 0.61 0.51 0.45 0.43 0.44 0.48 0.54 0.56 0.57 0.63 0.75
0.39 0.42 0.44 0.46 0.45 0.47 0.54 0.61 0.68 0.76 0.84 0.83 0.83 0.85 0.82 0.91 1.07 1.13 1.22 1.33 1.50 1.69 1.54 1.46 1.61 1.65 1.56 1.37 1.24 1.06 0.79 0.64 0.67 0.63 0.48 0.42 0.41 0.44 0.51 0.55 0.52 0.52 0.57
0.33 0.35 0.39 0.43 0.47 0.54 0.65 0.75 0.82 0.79 0.71 0.65 0.61 0.60 0.60 0.68 0.81 0.94 1.08 1.14 1.26 1.57 1.64 1.52 1.56 1.80 1.79 1.62 1.57 1.31 1.12 1.01 0.75 0.69 0.56 0.46 0.43 0.43 0.48 0.56 0.57 0.54 0.52
0.35 0.41 0.46 0.53 0.61 0.64 0.67 0.72 0.74 0.77 0.72 0.61 0.50 0.43 0.42 0.52 0.65 0.77 0.88 0.99 1.10 1.27 1.47 1.54 1.54 1.76 1.86 1.76 1.85 1.65 1.41 1.25 1.02 0.80 0.71 0.53 0.47 0.49 0.49 0.52 0.57 0.60 0.61
0.31 0.43 0.52 0.57 0.66 0.64 0.59 0.59 0.59 0.54 0.55 0.55 0.50 0.40 0.36 0.39 0.46 0.57 0.63 0.76 0.91 1.06 1.18 1.36 1.48 1.64 1.86 1.87 1.75 1.73 1.56 1.40 1.30 1.18 1.14 0.82 0.55 0.48 0.47 0.50 0.56 0.64 0.71
0.30 0.38 0.41 0.46 0.52 0.46 0.40 0.38 0.39 0.41 0.44 0.47 0.48 0.44 0.38 0.34 0.34 0.38 0.44 0.52 0.61 0.72 0.90 1.11 1.25 1.39 1.63 1.82 1.80 1.83 1.74 1.51 1.40 1.33 1.39 1.40 1.08 0.82 0.66 0.47 0.47 0.56 0.70
0.36 0.41 0.40 0.40 0.43 0.47 0.39 0.32 0.29 0.31 0.37 0.41 0.44 0.44 0.33 0.28 0.30 0.30 0.31 0.35 0.43 0.44 0.53 0.75 0.91 0.98 1.14 1.42 1.73 1.86 1.93 1.78 1.59 1.56 1.57 1.69 1.77 1.51 1.03 0.71 0.61 0.54 0.62
0.52 0.54 0.48 0.46 0.47 0.46 0.40 0.31 0.28 0.27 0.33 0.38 0.43 0.41 0.37 0.33 0.33 0.35 0.38 0.39 0.35 0.34 0.34 0.40 0.51 0.70 0.84 1.08 1.44 1.65 1.89 2.07 1.95 1.86 1.81 1.90 1.99 2.20 1.76 1.20 0.96 0.75 0.70
0.59 0.60 0.55 0.52 0.52 0.50 0.41 0.30 0.29 0.35 0.39 0.41 0.44 0.41 0.39 0.37 0.33 0.28 0.34 0.39 0.35 0.33 0.30 0.33 0.39 0.53 0.72 0.85 1.14 1.48 1.73 1.85 1.91 1.99 1.98 2.04 2.04 2.18 2.50 2.09 1.41 1.00 0.79
0.64 0.61 0.58 0.61 0.61 0.59 0.49 0.35 0.33 0.38 0.46 0.49 0.56 0.55 0.42 0.33 0.31 0.27 0.30 0.36 0.35 0.33 0.34 0.34 0.38 0.43 0.52 0.66 0.86 1.13 1.34 1.51 1.55 1.69 1.65 1.59 1.63 1.76 2.22 2.53 2.19 1.57 1.11